Погода в Алнашах

Россия / Удмуртская Республика     56°11′12″N   52°28′36″E
темп.,
°C
ветер,
м/с
пор.,
м/с
влажн.,
%
обл.,
%
осадки,
мм/ч
давл.,
гПа
погр.,
м
16 мая, вс
вс1601:00+18ююз356253 0.0 101866
04:00+17ююз365937 0.0 101995
07:00+20ююз4115610 0.0 1018264
10:00+26ююз6103919 0.0 1018651
13:00+29ююз710325 0.0 10171413
16:00+29юз693368 0.0 10173126
19:00+25ююз5104698 0.0 1016237
22:00+20юз3453100 0.0 101656
17 мая, пн
пн1701:00+18юз34625 0.0 101744
04:00+16зюз35615 0.0 101782
07:00+19юз255819 0.0 1018157
10:00+25юз454414 0.0 1018660
13:00+27зюз573876 0.0 10181373
16:00+28зюз5837100 0.0 10171968
19:00+25з37565 0.0 1017149
22:00+20сз33654 0.0 101823
18 мая, вт
вт1801:00+18с226515 0.0 101814
04:00+16с227218 0.3 101920
07:00+18ссв3468100 0.0 1020185
10:00+22св3456100 0.0 1020671
13:00+24ссв3444100 0.0 10201259
16:00+25св3339100 0.0 10201334
19:00+21в36567 0.0 1020165
22:00+16в476567 0.0 1021120
19 мая, ср
ср1901:00+14в410755 0.0 1021201
04:00+12в410843 0.0 1022207
07:00+14в58732 0.0 1023334
10:00+19в67535 0.0 1022707
13:00+22вюв67395 0.0 10211053
16:00+24вюв56360 0.0 10201341
19:00+21в47544 0.0 1019183
22:00+16вюв39635 0.0 1019141
20 мая, чт
чт2001:00+14вюв336718 0.0 101945
04:00+13юв22707 0.0 102023
07:00+17юв4106161 0.0 1019290
10:00+22ююв68455 0.0 1019856
13:00+24ююв78410 0.0 10181610
16:00+25ю78410 0.0 10172143
19:00+19зюз5873100 0.0 1018381
22:00+16ююз2478100 0.0 1018106